Location: Newark
(45.2500°N, 7.5833°E)
Time: 06:23:20
(UTC+00:00)

Vanguard 3 - Pass Details

Date: 26 January 2020
Orbit: 508 x 3263 km, 33.3° (Epoch: 27 February)

Event Time Altitude Azimuth Distance (km) Brightness Sun altitude
Rises 23:37:06 0° 275° (W) 6,413 11.8 -63.4°
Enters shadow 23:40:22 - 268° (W) 5,691 11.4 -63.4°
Reaches altitude 10° 23:45:20 10° 252° (WSW) 4,690 - -63.4°
Maximum altitude 23:49:35 12° 232° (SW) 4,066 - -63.4°
Drops below altitude 10° 23:53:13 10° 211° (SSW) 3,850 - -63.3°
Sets 23:58:21 0° 183° (S) 4,216 - -63.2°
